World > North America > United States > New York

Hourly Pierces Corner, NY Regional Weather

Feedback E-mail the Weather

Latest News

Pierces Corner, NY Weather Maps

°F °C°F °C
Pierces Corner Weather Map
UTC Time: 5/26/2022, 23:11
Your Time:

Pierces Corner, NY Regional Weather

Expires:202205270000;;623321
ASUS41 KBTV 262310
RWRBTV
VERMONT REGIONAL WEATHER ROUNDUP
NATIONAL WEATHER SERVICE BURLINGTON VT
700 PM EDT THU MAY 26 2022

NOTE: "FAIR" INDICATES FEW OR NO CLOUDS BELOW 12,000 FEET WITH NO 
SIGNIFICANT WEATHER AND/OR OBSTRUCTIONS TO VISIBILITY.

* THESE REPORTS ARE NOT UNDER NWS QUALITY CONTROL AND/OR DO NOT
  REPORT WEATHER SUCH AS PRECIPITATION AND FOG.


NYZ007-026>031-035-052-083-087-270000-
_____NORTHERN NEW YORK_
  
CITY           SKY/WX    TMP DP  RH WIND       PRES   REMARKS
PLATTSBURGH    MOSUNNY   72  51  47 SE17      29.90F                  
SARANAC LAKE   MOSUNNY   72  55  55 SW16      29.94F                  
MASSENA        CLOUDY    76  58  53 SW9       29.87F                  
OGDENSBURG*    CLOUDY    77  61  57 SW6       29.84F                  
POTSDAM*       CLOUDY    75  57  53 S10       29.87F                  
WATERTOWN      CLOUDY    78  60  53 S6        29.88F                  
FT DRUM        PTSUNNY   79  60  51 SW16      29.89F                  
ALBANY         PTSUNNY   72  53  51 SE20G26   30.04F                  
GLENS FALLS    CLOUDY    69  53  56 S13       30.02F                  

$$

SKY/WX - Weather  TMP - Temperature  DP - Dew Point  RH - Humidity
WIND - Wind Direction/Speed PRES - Barometric Pressure VSB - Visibility
WCI - Wind Chill Index E13G22 Wind - East Wind 13 mph/Gusts of 22 mph

Trending Headlines

Pierces Corner Radar Loop



Pierces Corner Quick Facts


National Two Day Weather Forecast


E-mail the Pierces Corner Weather Forecast

Voice your opinion or tell us about page issues...